SCP
0 0 0 0 0 0 0 0 0 0 -0 -0 -0 0 -0 -0 -0 0 0 0 0 0 0 0 0 0 0 0 0 0 0 0 0 0 0 0 0 0 0 0 0 0 0 0 0 0 0 0 0 0 0 0 0 0
0 0 0 0 0 0 0 0 0 0 -0 -0 -0 -0 -0 -0 -0 0 0 0 0 0 0 0 0 0 0 0 0 0 0 0 0 0 0 0 0 0 0 0 0 0 0 0 0 0 0 0 0 0 0 0 0 0
0 0 0 0 0 0 0 0 0 0 -0 -0 -0 -0 -0 -0 -0 -0 0 0 0 0 0 0 0 0 0 0 -0 0 0 0 0 0 0 0 0 0 0 0 0 0 0 0 0 0 0 0 0 0 0 0 0 0
0 0 0 0 0 0 0 0 -0 -0 0 -0 0 -0 -0 -0 -0 0 -0 -0 0 0 0 0 0 0 0 0 0 0 0 0 0 0 0 0 0 0 0 0 0 0 0 0 0 0 0 0 0 0 0 0 0 0
0 0 0 0 0 0 0 0 -0 -0 0 -0 -0 -0 -0 -0 -0 0 -0 -0 0 0 0 0 0 0 0 0 0 0 0 0 0 0 0 0 0 0 0 0 0 0 0 0 0 0 0 0 0 0 0 0 0 0
0 0 0 0 0 0 0 0 0 -0 -0 -0 -0 -0 -0 -0 -0 -0 -0 -0 0 0 0 0 0 0 0 0 0 0 0 0 0 0 0 0 0 0 0 0 0 0 0 0 0 0 0 0 0 0 0 0 0 0
0 0 0 0 0 0 0 -0 0 -0 -0 -0 -0 -0 0 0 0 0 0 0 0 -0 0 0 0 0 0 0 0 0 0 0 0 0 0 0 0 0 0 0 0 0 0 0 0 0 0 0 0 0 0 0 0 0
0 0 0 0 -0 0 0 -0 -0 -0 -0 -0 -0 -0 0 0 0 0 0 0 0 0 0 0 0 0 0 0 0 0 0 0 0 0 0 0 0 0 0 0 0 0 0 -0 0 0 0 0 0 0 0 0 0 0
0 0 0 0 -0 0 0 0 -0 -0 -0 -0 -0 0 -0 0 0 0 0 0 -0 -0 0 0 0 0 0 0 0 0 0 0 0 0 0 0 0 0 0 0 0 0 0 0 0 0 0 0 0 0 0 0 0 -0
0 -0 0 -0 0 0 0 0 -0 -0 -0 -0 0 0 -0 -0 -0 -0 0 0 0 0 0 0 0 0 0 0 0 0 0 0 0 0 0 0 0 0 -0 -0 -0 0 0 0 0 0 0 0 0 0 0 0 -0 -0
-0 -0 0 0 0 0 0 -0 -0 -0 -0 -0 0 0 -0 -0 -0 -0 -0 0 0 0 0 0 0 0 0 0 0 0 0 0 0 0 0 0 0 0 -0 -0 0 0 0 0 0 0 0 0 0 0 0 0 -0 -0
-0 -0 -0 -0 -0 -0 -0 -0 -0 0 -0 0 0 0 0 0 0 0 0 0 0 0 0 0 0 0 0 0 0 0 0 0 0 0 0 0 0 -0 0 0 0 0 0 0 0 0 0 0 0 0 -0 -0 0 0
-0 -0 -0 -0 -0 -0 -0 -0 -0 0 0 0 0 0 0 0 0 0 0 0 0 0 0 0 0 -0 0 0 0 0 0 0 0 0 0 0 0 0 0 0 0 0 0 0 0 0 0 0 0 0 0 -0 0 0
-0 -0 -0 -0 -0 -0 -0 -0 -0 -0 0 0 0 0 0 0 0 -0 -0 0 0 0 0 0 -0 0 0 0 0 0 0 0 0 0 0 0 -0 0 0 0 0 0 -0 -0 0 0 0 0 0 0 0 0 0 0
-0 -0 -0 -0 -0 0 0 -0 0 0 0 0 0 0 0 0 0 0 0 -0 0 0 0 0 0 0 0 0 0 0 0 0 0 0 0 0 -0 -0 -0 0 0 -0 -0 -0 -0 0 0 0 0 -0 -0 0 0 -0
0 0 0 0 0 0 0 0 0 -0 0 -0 0 0 0 0 0 0 0 0 0 -0 -0 -0 -0 0 0 0 0 0 0 0 0 0 -0 -0 -0 -0 -0 0 0 0 -0 -0 -0 -0 -0 -0 -0 -0 -0 -0 0 -0
-0 0 0 0 0 0 -0 0 -0 -0 0 0 -0 0 0 0 0 0 0 0 0 0 -0 0 0 0 0 0 0 0 0 0 0 -0 -0 -0 -0 -0 -0 -0 0 0 -0 -0 -0 -0 -0 -0 -0 -0 0 0 -0 -0
0 0 0 0 0 0 0 0 0 -0 -0 0 0 0 0 0 0 0 0 0 0 0 0 0 0 0 0 0 0 0 0 0 -0 -0 -0 -0 -0 -0 -0 -0 0 0 0 0 -0 -0 -0 -0 -0 -0 -0 -0 -0 -0
0 0 0 0 0 0 0 0 0 0 -0 0 0 0 0 0 -0 0 0 0 0 0 -0 0 0 0 0 0 0 -0 -0 0 0 0 -0 -0 0 -0 -0 -0 -0 -0 0 0 -0 -0 -0 -0 -0 -0 -0 -0 -0 -0
0 0 0 0 0 0 0 0 0 0 0 0 0 0 0 0 0 0 0 0 0 0 -0 0 0 0 0 0 0 0 -0 -0 -0 -0 0 -0 -0 0 -0 -0 0 -0 0 0 0 -0 -0 -0 -0 -0 -0 -0 -0 -0
0 0 0 0 0 0 0 0 0 0 0 0 0 0 0 0 0 0 0 0 -0 0 -0 0 0 0 0 0 0 0 -0 0 -0 0 0 0 -0 0 0 0 0 0 0 0 0 -0 -0 -0 -0 -0 -0 -0 -0 -0
-0 0 0 0 0 0 0 0 0 0 0 0 0 0 0 0 0 0 -0 -0 -0 -0 -0 0 0 0 -0 -0 -0 -0 -0 0 -0 0 0 0 0 0 0 0 -0 0 0 0 0 0 0 0 0 -0 -0 -0 -0 -0
-0 -0 0 0 0 0 0 0 0 0 0 0 0 0 0 0 0 0 0 0 0 0 -0 0 0 0 0 0 0 -0 0 0 -0 -0 0 -0 0 0 0 0 -0 -0 0 0 0 0 0 0 -0 -0 -0 -0 -0 -0
0 0 0 0 0 0 0 0 0 0 0 0 0 0 0 0 0 0 0 0 0 0 0 -0 0 0 0 0 0 0 -0 -0 0 -0 -0 0 0 0 0 0 -0 -0 0 -0 0 0 0 0 -0 -0 -0 0 0 -0
0 0 0 0 0 0 0 0 0 0 0 0 0 0 0 0 0 0 0 0 0 0 0 0 0 0 0 0 0 -0 -0 -0 -0 -0 -0 0 0 0 0 0 0 0 -0 -0 -0 -0 -0 -0 0 0 0 0 0 0
0 0 0 0 0 0 0 0 0 0 0 0 0 0 0 0 0 0 0 0 0 0 0 0 0 0 0 0 0 0 0 0 -0 0 0 0 0 0 0 0 0 -0 -0 0 0 -0 -0 -0 -0 -0 0 0 0 0
0 0 0 0 0 0 0 0 0 0 0 0 0 0 0 0 0 0 0 0 -0 0 0 0 0 0 0 0 0 0 0 -0 0 0 0 0 0 0 0 0 0 -0 0 0 0 0 0 0 0 0 -0 -0 -0 -0
0 0 0 0 0 0 0 0 0 0 0 0 0 0 0 0 0 0 0 0 0 0 0 0 0 0 0 0 0 0 0 0 0 0 -0 -0 0 0 0 0 0 0 0 0 0 0 0 0 0 0 0 0 0 0
-0 0 -0 -0 -0 0 0 0 0 0 0 0 0 0 0 0 0 0 0 0 0 0 0 0 0 0 0 0 0 0 0 0 0 0 0 0 0 0 0 0 0 0 0 0 0 0 0 0 0 0 0 0 0 0
0 0 0 0 0 0 0 0 0 0 0 0 0 0 0 0 0 0 0 0 0 0 0 0 0 0 0 0 0 0 0 0 0 -0 0 0 0 0 0 0 0 0 0 0 0 0 0 0 0 0 0 0 0 0
0 0 0 0 0 0 0 0 0 0 0 0 0 0 0 0 0 0 0 0 0 0 0 0 0 0 0 0 0 0 0 0 0 0 0 0 0 0 0 0 0 0 0 0 0 0 0 0 0 0 0 0 0 0
0 0 0 0 0 0 0 0 0 0 0 0 0 0 0 0 0 0 0 0 0 0 0 0 0 0 0 0 0 0 0 0 0 0 0 0 0 0 0 0 0 0 0 0 0 0 0 0 0 0 0 0 0 0
0 0 0 0 0 0 0 0 0 0 0 0 0 0 0 0 0 0 0 0 0 0 0 0 0 0 0 0 0 0 0 0 0 0 0 0 0 0 0 0 0 0 0 0 0 0 0 0 0 0 0 0 0 0
Wind_Speed_500mb
37 44 48 48 48 39 43 48 47 42 36 28 27 26 26 23 19 17 12 12 13 7 13 13 14 13 12 13 4 1 3 8 7 7 4 2 4 2 3 5 11 9 11 7 7 6 15 9 5 11 9 7 14 18
36 41 46 51 41 36 39 44 42 39 31 26 26 23 22 23 23 18 12 14 11 8 11 21 17 14 5 7 11 9 5 4 5 7 2 5 4 4 3 4 5 6 9 8 14 10 8 10 5 19 20 21 21 20
35 37 43 47 45 32 37 43 39 34 29 25 19 19 23 21 20 21 17 14 11 9 12 9 7 1 9 10 9 3 2 4 6 6 7 4 8 4 3 5 3 3 2 3 3 4 10 24 13 25 26 23 27 27
30 36 41 43 47 29 34 37 34 32 27 22 19 19 20 21 21 19 19 16 14 9 4 5 12 5 10 16 16 12 5 15 15 11 9 5 5 4 4 4 5 8 2 8 8 11 19 28 25 22 20 22 24 28
28 34 39 43 45 29 30 31 30 30 26 19 18 15 17 21 22 20 11 12 8 7 6 17 10 18 12 17 12 20 19 16 9 8 7 2 5 5 3 1 7 11 10 8 9 15 15 20 24 19 28 32 29 31
33 38 43 46 43 36 26 26 27 25 28 21 19 18 21 20 21 17 1 11 19 3 7 7 14 22 9 11 26 26 15 15 11 8 5 5 5 4 1 5 13 18 15 14 8 21 30 36 24 21 22 18 14 15
38 41 40 38 37 32 22 22 22 25 25 23 23 22 24 23 16 6 5 16 15 7 5 7 7 8 22 24 16 17 15 8 6 6 4 5 3 2 3 6 12 12 15 18 29 30 19 4 9 11 10 15 16 19
37 40 34 37 34 29 23 23 26 29 25 24 27 25 24 16 9 9 5 3 12 4 4 3 5 3 8 7 7 6 8 6 7 6 3 2 2 3 7 19 37 33 25 17 13 10 7 16 14 13 13 14 19 26
36 36 32 34 33 25 23 22 24 27 26 23 22 16 11 9 8 13 6 5 9 5 5 2 4 4 5 9 7 7 6 4 3 2 1 5 3 8 12 17 21 10 15 19 11 10 14 12 12 13 15 20 25 33
36 32 31 31 32 21 21 21 28 24 26 12 10 7 8 7 13 9 4 5 4 2 2 2 1 1 4 5 5 4 4 3 2 4 7 3 7 32 38 42 41 34 9 14 17 9 7 13 15 15 19 22 28 34
31 28 28 27 29 20 16 21 22 24 16 11 11 6 8 8 7 4 4 4 5 3 3 4 5 2 3 1 4 3 3 4 1 4 3 3 4 7 24 17 3 10 2 4 4 6 9 9 10 15 20 25 27 30
31 28 29 26 23 21 17 16 20 19 18 18 11 8 6 5 4 3 2 1 2 2 6 5 6 10 4 3 6 2 4 1 2 10 3 4 1 15 5 18 19 16 11 7 9 10 10 12 14 18 23 20 19 31
27 27 28 25 23 19 15 13 14 14 18 11 5 5 4 2 4 2 3 1 3 3 6 9 1 7 4 3 7 3 2 3 2 4 5 1 7 9 22 25 21 14 12 13 14 15 13 10 19 30 22 12 23 37
29 23 25 24 23 21 9 9 12 12 8 5 6 7 2 3 4 3 3 4 7 11 8 3 5 3 3 5 4 6 6 2 4 5 4 1 8 9 21 19 14 19 17 18 22 23 13 13 29 25 19 23 32 38
28 19 18 10 16 14 7 11 11 7 7 5 6 5 4 6 13 16 20 8 8 2 9 8 6 4 4 4 1 3 4 7 7 2 3 10 9 26 22 19 19 19 18 19 25 27 14 20 31 21 24 27 37 34
21 18 6 7 14 8 6 5 4 9 5 4 5 7 9 8 13 9 3 2 4 13 9 5 3 2 4 3 5 7 4 6 2 3 12 26 31 23 23 20 21 20 21 23 27 25 18 25 29 27 25 25 33 33
19 17 5 4 10 3 3 7 4 5 6 5 6 12 15 15 11 8 10 8 3 3 1 1 0 3 3 2 4 4 4 1 1 18 27 29 26 24 24 20 18 13 14 18 24 27 23 27 28 33 35 31 28 32
32 13 7 3 3 3 7 4 5 5 6 8 10 13 7 18 20 19 10 4 2 3 1 1 4 1 3 5 3 4 5 10 24 31 26 27 25 25 22 20 17 13 11 12 22 25 26 29 32 34 33 36 36 34
35 18 15 9 6 6 2 2 3 6 8 14 17 16 14 16 15 14 5 8 1 2 1 2 2 2 1 3 4 7 3 9 33 25 22 22 21 24 22 20 18 17 14 12 18 26 28 28 29 31 35 42 45 43
27 19 19 14 17 8 2 3 5 7 8 8 15 13 12 13 5 2 4 1 3 2 2 1 4 6 4 13 11 8 2 11 30 31 28 26 22 19 16 17 13 10 13 11 16 21 25 28 30 30 36 42 47 52
19 20 19 18 14 8 4 4 6 8 10 10 15 13 8 5 5 6 4 2 5 6 5 7 15 23 26 15 6 7 8 21 32 33 35 32 24 17 15 16 14 13 11 12 10 15 21 28 27 28 32 40 42 45
14 21 17 15 6 8 6 9 8 9 8 12 14 5 7 4 4 4 9 5 7 11 14 24 26 24 17 12 17 10 13 19 26 17 28 30 29 25 21 15 15 15 12 13 13 13 18 22 24 25 31 34 38 42
10 16 9 7 5 8 4 8 7 6 4 5 5 5 4 3 2 15 7 7 7 17 22 29 28 25 18 17 22 11 28 21 20 18 30 26 20 18 22 15 10 11 17 16 14 16 16 17 21 23 25 30 36 40
6 2 2 5 9 6 6 7 7 7 6 4 4 4 0 1 12 3 4 7 7 18 24 29 30 21 7 6 16 7 26 27 22 21 28 27 24 23 28 17 9 9 12 15 15 17 20 19 19 22 23 27 32 37
2 4 4 5 6 5 4 4 6 4 4 3 3 3 2 4 2 2 4 6 12 21 30 28 24 18 17 10 5 4 29 29 26 27 25 25 28 25 35 26 18 16 14 15 16 15 18 20 21 23 26 27 29 33
4 6 7 3 5 5 4 3 4 3 3 2 3 7 5 3 2 4 4 11 15 26 32 30 29 18 2 9 13 4 15 26 24 25 26 23 21 35 42 37 32 26 18 11 9 13 15 15 17 19 23 26 29 31
4 6 6 5 4 5 4 2 5 3 2 4 3 5 4 2 4 3 8 12 29 28 24 22 21 22 16 7 2 4 13 20 21 13 13 17 25 27 20 25 26 16 19 18 14 6 7 10 11 11 12 16 19 22
6 5 3 3 1 2 1 3 2 4 4 8 3 6 3 4 1 9 10 23 26 25 22 18 17 15 17 7 12 2 15 21 20 19 15 26 32 29 22 19 15 20 19 14 15 13 7 3 4 5 4 4 6 10
7 6 3 4 2 3 4 2 2 2 5 4 3 3 5 5 8 11 11 16 19 20 20 20 14 13 11 15 20 17 5 23 34 18 13 22 35 35 34 32 30 28 24 20 22 19 12 8 6 6 5 4 6 5
6 9 5 2 1 1 1 1 5 5 6 8 8 10 9 11 8 16 12 13 18 20 19 20 22 13 6 12 21 36 27 35 18 16 15 15 26 36 35 34 32 31 29 27 25 22 18 11 9 8 4 3 6 14
3 6 5 4 4 5 8 14 12 11 6 8 9 8 10 9 2 10 19 13 13 16 17 16 14 13 5 14 23 25 40 23 9 12 5 3 10 25 32 33 28 24 26 24 19 17 15 17 12 8 7 6 5 10
8 7 8 4 4 12 16 12 7 4 4 3 2 4 6 4 3 5 18 18 11 11 16 18 20 15 11 6 25 29 28 29 20 15 15 10 13 20 24 25 25 25 23 21 20 20 18 14 11 9 9 8 10 11
9 9 6 6 6 8 11 6 7 5 5 4 3 3 3 2 1 8 18 18 16 15 13 14 17 19 17 11 6 24 30 33 33 29 22 25 25 14 14 20 20 21 22 22 21 20 17 12 9 7 6 6 7 7
Wind_Direction_500mb
334 342 342 342 341 345 344 344 348 347 347 344 353 358 356 358 359 359 356 354 357 335 319 339 26 30 14 28 74 6 47 13 42 66 97 140 108 262 86 147 158 159 158 176 163 199 260 166 130 174 209 253 271 272
337 342 340 341 339 340 340 344 346 347 346 341 351 3 360 353 1 9 351 339 336 290 288 301 300 316 3 48 23 29 108 69 127 95 92 106 76 49 130 201 350 167 184 182 179 211 234 173 230 287 285 270 278 284
338 340 337 336 334 340 343 346 348 343 346 347 355 8 8 2 350 358 7 358 335 326 298 320 22 280 228 222 215 157 81 103 98 93 132 125 85 119 134 253 317 323 140 211 98 235 222 255 280 293 276 269 291 294
338 340 336 333 333 335 343 352 352 347 340 354 1 1 358 356 358 353 356 2 15 343 353 338 2 14 174 186 209 205 140 133 114 79 76 103 115 160 201 239 210 211 350 187 259 290 285 276 278 270 264 287 292 295
341 336 335 333 333 331 349 355 353 351 347 349 348 4 353 354 356 355 29 27 4 352 322 311 30 21 222 206 215 179 158 126 86 65 58 65 62 85 346 302 248 196 196 159 230 258 248 277 316 304 293 294 299 306
340 337 336 336 334 336 340 352 354 345 348 356 357 352 341 342 335 345 214 24 30 246 334 339 359 9 65 142 146 148 137 86 69 77 84 81 85 93 248 248 261 247 241 265 246 319 304 302 303 304 311 310 300 295
340 333 333 340 339 338 327 342 342 341 334 339 340 339 334 330 325 2 1 359 357 95 355 321 358 21 116 126 104 99 102 85 64 91 96 132 130 165 237 244 257 317 300 285 276 292 305 319 337 325 302 289 286 292
337 333 339 343 342 341 333 337 340 337 323 328 334 329 336 347 28 50 14 71 22 38 38 348 292 274 83 109 80 101 90 75 48 106 128 110 122 168 255 260 279 296 311 292 299 247 272 311 308 284 277 284 299 311
335 336 338 345 344 340 338 335 325 330 331 326 335 339 358 22 33 17 45 5 0 36 341 8 330 334 26 58 85 64 78 84 57 93 225 157 194 232 233 270 297 353 356 338 307 294 291 295 284 287 304 312 319 322
334 332 336 337 342 332 343 347 346 339 343 358 355 14 24 10 20 349 3 1 18 1 293 311 324 323 110 48 46 99 73 128 157 231 162 199 260 268 282 278 279 280 307 328 330 281 273 286 295 313 318 321 323 326
323 326 328 333 345 330 341 343 343 346 352 13 3 8 341 347 351 6 26 34 354 340 233 259 259 312 20 70 112 169 149 149 17 242 153 246 254 274 359 22 161 134 139 275 245 0 342 337 331 327 325 321 321 326
309 321 322 329 331 337 337 334 341 345 355 349 338 332 349 6 356 338 5 268 228 260 214 187 251 199 14 84 97 132 90 127 240 142 229 248 46 26 89 90 107 118 108 32 21 22 5 346 344 341 333 317 308 328
302 311 314 329 331 329 318 318 330 333 328 327 323 338 31 23 8 311 10 110 276 239 225 177 101 163 151 102 70 84 172 186 120 229 244 155 124 91 125 119 99 74 48 61 43 16 353 355 352 348 346 326 325 340
305 302 309 325 331 325 313 303 320 334 325 317 327 325 229 240 241 210 250 315 332 288 204 165 66 83 86 71 126 130 218 117 245 236 239 125 127 163 131 108 81 85 63 61 36 16 18 3 1 0 5 346 354 359
311 299 306 328 355 348 336 300 302 314 320 307 311 279 259 345 314 272 275 255 281 155 118 87 65 74 3 96 227 115 210 223 220 273 126 207 178 148 129 102 94 83 80 63 26 20 29 5 7 21 8 5 5 12
310 314 259 317 347 348 337 290 293 320 289 281 273 299 348 320 337 10 144 305 128 124 84 100 131 134 196 159 203 217 240 218 132 176 178 150 152 146 126 114 119 99 77 58 29 33 39 18 30 23 20 11 3 24
289 289 244 299 356 10 318 5 268 297 289 279 282 289 293 291 272 317 327 12 143 114 66 126 207 63 99 232 237 224 311 132 296 136 148 152 150 139 134 121 132 117 83 55 31 38 46 36 36 35 35 32 21 36
262 265 236 140 6 306 272 268 305 292 272 271 280 288 301 282 285 303 317 246 70 119 139 246 290 296 304 317 307 281 102 67 131 139 148 150 143 146 138 120 114 113 111 81 38 40 44 44 45 41 43 44 43 46
242 238 231 236 219 218 359 279 269 287 271 285 279 296 296 291 295 295 281 172 256 230 204 287 289 238 295 253 300 345 130 110 149 147 146 150 146 147 148 133 114 96 91 86 50 46 47 49 50 48 51 54 55 54
221 216 207 216 183 206 186 253 246 268 274 296 284 293 307 308 328 235 175 166 354 11 50 237 245 310 272 279 277 235 118 164 165 150 149 148 145 152 154 164 155 128 98 93 65 51 48 54 55 56 58 60 62 61
197 214 210 200 182 215 201 238 252 252 288 277 295 312 304 270 241 219 234 213 6 11 336 338 342 339 342 86 97 209 193 180 185 174 166 164 159 157 151 157 150 142 110 93 86 76 57 53 55 57 62 65 65 65
122 119 131 154 143 195 243 229 248 289 271 274 298 261 276 258 231 203 138 73 60 354 344 347 348 359 26 9 354 297 196 196 195 185 173 171 171 178 174 158 158 156 132 97 86 86 79 65 57 64 67 71 71 71
99 148 124 153 158 198 270 220 243 230 248 265 302 299 263 262 152 149 84 83 84 12 7 358 337 322 327 357 341 222 197 187 186 180 176 180 192 200 191 172 172 165 154 128 103 88 85 77 66 68 73 75 74 73
89 118 196 210 202 214 223 225 229 250 247 244 221 265 155 55 147 54 80 81 32 357 8 6 2 352 333 322 34 87 175 170 179 174 182 197 198 194 195 181 164 154 137 130 117 101 89 88 79 76 79 78 76 73
294 212 219 247 208 234 229 219 230 232 247 248 283 341 352 100 141 33 70 34 10 359 3 2 356 8 21 53 351 32 179 184 197 201 195 200 208 195 180 179 177 168 160 153 138 121 110 101 94 86 81 77 77 76
268 220 202 267 183 198 300 300 348 331 327 300 20 351 19 87 95 62 46 349 346 347 348 348 348 334 272 13 13 130 172 199 223 221 220 223 219 186 179 184 187 186 178 173 142 136 130 125 115 103 92 83 75 70
282 278 240 237 269 247 294 284 263 272 345 9 5 7 318 194 103 56 341 324 334 334 334 329 317 322 257 298 104 335 181 184 194 196 167 159 180 195 196 198 197 189 181 182 187 172 127 138 145 130 111 98 83 70
269 282 273 303 349 7 330 281 53 29 21 341 357 36 50 20 11 334 324 328 330 330 329 323 306 304 225 220 186 218 168 186 186 150 170 187 194 201 201 197 194 193 191 188 198 201 196 164 149 158 155 123 100 78
250 254 246 320 200 100 64 16 107 103 350 339 56 94 113 106 27 353 341 341 342 341 332 328 313 276 233 241 200 211 206 174 168 162 215 216 216 216 214 210 206 205 196 192 195 203 203 187 165 155 161 194 216 225
249 205 164 145 86 206 277 155 155 131 71 95 109 121 133 143 53 21 3 358 5 7 358 347 345 340 231 211 194 187 192 185 198 219 258 246 234 222 213 204 203 199 195 195 195 195 199 208 194 182 194 252 244 227
200 197 127 130 162 185 161 137 130 130 102 92 96 123 145 172 279 4 8 1 5 3 4 9 359 344 323 170 170 190 199 199 163 166 143 191 220 201 193 188 191 198 196 197 204 205 203 196 201 226 272 285 217 210
190 182 164 148 159 168 165 166 164 151 133 109 120 124 143 187 240 342 4 8 1 10 21 21 19 11 2 266 200 201 203 206 193 186 147 208 202 195 198 196 194 192 191 189 183 181 185 201 215 250 254 237 231 236
155 153 148 136 144 172 196 204 171 129 128 125 144 154 180 234 238 5 354 350 358 6 9 12 8 6 1 348 299 213 199 202 216 191 190 212 183 161 176 176 174 176 179 183 186 186 191 213 240 228 214 215 224 235
Wind_Speed_850mb
37 44 48 48 48 39 43 48 47 42 36 28 27 26 26 23 19 17 12 12 13 7 13 13 14 13 12 13 4 1 3 8 7 7 4 2 4 2 3 5 11 9 11 7 7 6 15 9 5 11 9 7 14 18
36 41 46 51 41 36 39 44 42 39 31 26 26 23 22 23 23 18 12 14 11 8 11 21 17 14 5 7 11 9 5 4 5 7 2 5 4 4 3 4 5 6 9 8 14 10 8 10 5 19 20 21 21 20
35 37 43 47 45 32 37 43 39 34 29 25 19 19 23 21 20 21 17 14 11 9 12 9 7 1 9 10 9 3 2 4 6 6 7 4 8 4 3 5 3 3 2 3 3 4 10 24 13 25 26 23 27 27
30 36 41 43 47 29 34 37 34 32 27 22 19 19 20 21 21 19 19 16 14 9 4 5 12 5 10 16 16 12 5 15 15 11 9 5 5 4 4 4 5 8 2 8 8 11 19 28 25 22 20 22 24 28
28 34 39 43 45 29 30 31 30 30 26 19 18 15 17 21 22 20 11 12 8 7 6 17 10 18 12 17 12 20 19 16 9 8 7 2 5 5 3 1 7 11 10 8 9 15 15 20 24 19 28 32 29 31
33 38 43 46 43 36 26 26 27 25 28 21 19 18 21 20 21 17 1 11 19 3 7 7 14 22 9 11 26 26 15 15 11 8 5 5 5 4 1 5 13 18 15 14 8 21 30 36 24 21 22 18 14 15
38 41 40 38 37 32 22 22 22 25 25 23 23 22 24 23 16 6 5 16 15 7 5 7 7 8 22 24 16 17 15 8 6 6 4 5 3 2 3 6 12 12 15 18 29 30 19 4 9 11 10 15 16 19
37 40 34 37 34 29 23 23 26 29 25 24 27 25 24 16 9 9 5 3 12 4 4 3 5 3 8 7 7 6 8 6 7 6 3 2 2 3 7 19 37 33 25 17 13 10 7 16 14 13 13 14 19 26
36 36 32 34 33 25 23 22 24 27 26 23 22 16 11 9 8 13 6 5 9 5 5 2 4 4 5 9 7 7 6 4 3 2 1 5 3 8 12 17 21 10 15 19 11 10 14 12 12 13 15 20 25 33
36 32 31 31 32 21 21 21 28 24 26 12 10 7 8 7 13 9 4 5 4 2 2 2 1 1 4 5 5 4 4 3 2 4 7 3 7 32 38 42 41 34 9 14 17 9 7 13 15 15 19 22 28 34
31 28 28 27 29 20 16 21 22 24 16 11 11 6 8 8 7 4 4 4 5 3 3 4 5 2 3 1 4 3 3 4 1 4 3 3 4 7 24 17 3 10 2 4 4 6 9 9 10 15 20 25 27 30
31 28 29 26 23 21 17 16 20 19 18 18 11 8 6 5 4 3 2 1 2 2 6 5 6 10 4 3 6 2 4 1 2 10 3 4 1 15 5 18 19 16 11 7 9 10 10 12 14 18 23 20 19 31
27 27 28 25 23 19 15 13 14 14 18 11 5 5 4 2 4 2 3 1 3 3 6 9 1 7 4 3 7 3 2 3 2 4 5 1 7 9 22 25 21 14 12 13 14 15 13 10 19 30 22 12 23 37
29 23 25 24 23 21 9 9 12 12 8 5 6 7 2 3 4 3 3 4 7 11 8 3 5 3 3 5 4 6 6 2 4 5 4 1 8 9 21 19 14 19 17 18 22 23 13 13 29 25 19 23 32 38
28 19 18 10 16 14 7 11 11 7 7 5 6 5 4 6 13 16 20 8 8 2 9 8 6 4 4 4 1 3 4 7 7 2 3 10 9 26 22 19 19 19 18 19 25 27 14 20 31 21 24 27 37 34
21 18 6 7 14 8 6 5 4 9 5 4 5 7 9 8 13 9 3 2 4 13 9 5 3 2 4 3 5 7 4 6 2 3 12 26 31 23 23 20 21 20 21 23 27 25 18 25 29 27 25 25 33 33
19 17 5 4 10 3 3 7 4 5 6 5 6 12 15 15 11 8 10 8 3 3 1 1 0 3 3 2 4 4 4 1 1 18 27 29 26 24 24 20 18 13 14 18 24 27 23 27 28 33 35 31 28 32
32 13 7 3 3 3 7 4 5 5 6 8 10 13 7 18 20 19 10 4 2 3 1 1 4 1 3 5 3 4 5 10 24 31 26 27 25 25 22 20 17 13 11 12 22 25 26 29 32 34 33 36 36 34
35 18 15 9 6 6 2 2 3 6 8 14 17 16 14 16 15 14 5 8 1 2 1 2 2 2 1 3 4 7 3 9 33 25 22 22 21 24 22 20 18 17 14 12 18 26 28 28 29 31 35 42 45 43
27 19 19 14 17 8 2 3 5 7 8 8 15 13 12 13 5 2 4 1 3 2 2 1 4 6 4 13 11 8 2 11 30 31 28 26 22 19 16 17 13 10 13 11 16 21 25 28 30 30 36 42 47 52
19 20 19 18 14 8 4 4 6 8 10 10 15 13 8 5 5 6 4 2 5 6 5 7 15 23 26 15 6 7 8 21 32 33 35 32 24 17 15 16 14 13 11 12 10 15 21 28 27 28 32 40 42 45
14 21 17 15 6 8 6 9 8 9 8 12 14 5 7 4 4 4 9 5 7 11 14 24 26 24 17 12 17 10 13 19 26 17 28 30 29 25 21 15 15 15 12 13 13 13 18 22 24 25 31 34 38 42
10 16 9 7 5 8 4 8 7 6 4 5 5 5 4 3 2 15 7 7 7 17 22 29 28 25 18 17 22 11 28 21 20 18 30 26 20 18 22 15 10 11 17 16 14 16 16 17 21 23 25 30 36 40
6 2 2 5 9 6 6 7 7 7 6 4 4 4 0 1 12 3 4 7 7 18 24 29 30 21 7 6 16 7 26 27 22 21 28 27 24 23 28 17 9 9 12 15 15 17 20 19 19 22 23 27 32 37
2 4 4 5 6 5 4 4 6 4 4 3 3 3 2 4 2 2 4 6 12 21 30 28 24 18 17 10 5 4 29 29 26 27 25 25 28 25 35 26 18 16 14 15 16 15 18 20 21 23 26 27 29 33
4 6 7 3 5 5 4 3 4 3 3 2 3 7 5 3 2 4 4 11 15 26 32 30 29 18 2 9 13 4 15 26 24 25 26 23 21 35 42 37 32 26 18 11 9 13 15 15 17 19 23 26 29 31
4 6 6 5 4 5 4 2 5 3 2 4 3 5 4 2 4 3 8 12 29 28 24 22 21 22 16 7 2 4 13 20 21 13 13 17 25 27 20 25 26 16 19 18 14 6 7 10 11 11 12 16 19 22
6 5 3 3 1 2 1 3 2 4 4 8 3 6 3 4 1 9 10 23 26 25 22 18 17 15 17 7 12 2 15 21 20 19 15 26 32 29 22 19 15 20 19 14 15 13 7 3 4 5 4 4 6 10
7 6 3 4 2 3 4 2 2 2 5 4 3 3 5 5 8 11 11 16 19 20 20 20 14 13 11 15 20 17 5 23 34 18 13 22 35 35 34 32 30 28 24 20 22 19 12 8 6 6 5 4 6 5
6 9 5 2 1 1 1 1 5 5 6 8 8 10 9 11 8 16 12 13 18 20 19 20 22 13 6 12 21 36 27 35 18 16 15 15 26 36 35 34 32 31 29 27 25 22 18 11 9 8 4 3 6 14
3 6 5 4 4 5 8 14 12 11 6 8 9 8 10 9 2 10 19 13 13 16 17 16 14 13 5 14 23 25 40 23 9 12 5 3 10 25 32 33 28 24 26 24 19 17 15 17 12 8 7 6 5 10
8 7 8 4 4 12 16 12 7 4 4 3 2 4 6 4 3 5 18 18 11 11 16 18 20 15 11 6 25 29 28 29 20 15 15 10 13 20 24 25 25 25 23 21 20 20 18 14 11 9 9 8 10 11
9 9 6 6 6 8 11 6 7 5 5 4 3 3 3 2 1 8 18 18 16 15 13 14 17 19 17 11 6 24 30 33 33 29 22 25 25 14 14 20 20 21 22 22 21 20 17 12 9 7 6 6 7 7
Wind_Direction_850mb
334 342 342 342 341 345 344 344 348 347 347 344 353 358 356 358 359 359 356 354 357 335 319 339 26 30 14 28 74 6 47 13 42 66 97 140 108 262 86 147 158 159 158 176 163 199 260 166 130 174 209 253 271 272
337 342 340 341 339 340 340 344 346 347 346 341 351 3 360 353 1 9 351 339 336 290 288 301 300 316 3 48 23 29 108 69 127 95 92 106 76 49 130 201 350 167 184 182 179 211 234 173 230 287 285 270 278 284
338 340 337 336 334 340 343 346 348 343 346 347 355 8 8 2 350 358 7 358 335 326 298 320 22 280 228 222 215 157 81 103 98 93 132 125 85 119 134 253 317 323 140 211 98 235 222 255 280 293 276 269 291 294
338 340 336 333 333 335 343 352 352 347 340 354 1 1 358 356 358 353 356 2 15 343 353 338 2 14 174 186 209 205 140 133 114 79 76 103 115 160 201 239 210 211 350 187 259 290 285 276 278 270 264 287 292 295
341 336 335 333 333 331 349 355 353 351 347 349 348 4 353 354 356 355 29 27 4 352 322 311 30 21 222 206 215 179 158 126 86 65 58 65 62 85 346 302 248 196 196 159 230 258 248 277 316 304 293 294 299 306
340 337 336 336 334 336 340 352 354 345 348 356 357 352 341 342 335 345 214 24 30 246 334 339 359 9 65 142 146 148 137 86 69 77 84 81 85 93 248 248 261 247 241 265 246 319 304 302 303 304 311 310 300 295
340 333 333 340 339 338 327 342 342 341 334 339 340 339 334 330 325 2 1 359 357 95 355 321 358 21 116 126 104 99 102 85 64 91 96 132 130 165 237 244 257 317 300 285 276 292 305 319 337 325 302 289 286 292
337 333 339 343 342 341 333 337 340 337 323 328 334 329 336 347 28 50 14 71 22 38 38 348 292 274 83 109 80 101 90 75 48 106 128 110 122 168 255 260 279 296 311 292 299 247 272 311 308 284 277 284 299 311
335 336 338 345 344 340 338 335 325 330 331 326 335 339 358 22 33 17 45 5 0 36 341 8 330 334 26 58 85 64 78 84 57 93 225 157 194 232 233 270 297 353 356 338 307 294 291 295 284 287 304 312 319 322
334 332 336 337 342 332 343 347 346 339 343 358 355 14 24 10 20 349 3 1 18 1 293 311 324 323 110 48 46 99 73 128 157 231 162 199 260 268 282 278 279 280 307 328 330 281 273 286 295 313 318 321 323 326
323 326 328 333 345 330 341 343 343 346 352 13 3 8 341 347 351 6 26 34 354 340 233 259 259 312 20 70 112 169 149 149 17 242 153 246 254 274 359 22 161 134 139 275 245 0 342 337 331 327 325 321 321 326
309 321 322 329 331 337 337 334 341 345 355 349 338 332 349 6 356 338 5 268 228 260 214 187 251 199 14 84 97 132 90 127 240 142 229 248 46 26 89 90 107 118 108 32 21 22 5 346 344 341 333 317 308 328
302 311 314 329 331 329 318 318 330 333 328 327 323 338 31 23 8 311 10 110 276 239 225 177 101 163 151 102 70 84 172 186 120 229 244 155 124 91 125 119 99 74 48 61 43 16 353 355 352 348 346 326 325 340
305 302 309 325 331 325 313 303 320 334 325 317 327 325 229 240 241 210 250 315 332 288 204 165 66 83 86 71 126 130 218 117 245 236 239 125 127 163 131 108 81 85 63 61 36 16 18 3 1 0 5 346 354 359
311 299 306 328 355 348 336 300 302 314 320 307 311 279 259 345 314 272 275 255 281 155 118 87 65 74 3 96 227 115 210 223 220 273 126 207 178 148 129 102 94 83 80 63 26 20 29 5 7 21 8 5 5 12
310 314 259 317 347 348 337 290 293 320 289 281 273 299 348 320 337 10 144 305 128 124 84 100 131 134 196 159 203 217 240 218 132 176 178 150 152 146 126 114 119 99 77 58 29 33 39 18 30 23 20 11 3 24
289 289 244 299 356 10 318 5 268 297 289 279 282 289 293 291 272 317 327 12 143 114 66 126 207 63 99 232 237 224 311 132 296 136 148 152 150 139 134 121 132 117 83 55 31 38 46 36 36 35 35 32 21 36
262 265 236 140 6 306 272 268 305 292 272 271 280 288 301 282 285 303 317 246 70 119 139 246 290 296 304 317 307 281 102 67 131 139 148 150 143 146 138 120 114 113 111 81 38 40 44 44 45 41 43 44 43 46
242 238 231 236 219 218 359 279 269 287 271 285 279 296 296 291 295 295 281 172 256 230 204 287 289 238 295 253 300 345 130 110 149 147 146 150 146 147 148 133 114 96 91 86 50 46 47 49 50 48 51 54 55 54
221 216 207 216 183 206 186 253 246 268 274 296 284 293 307 308 328 235 175 166 354 11 50 237 245 310 272 279 277 235 118 164 165 150 149 148 145 152 154 164 155 128 98 93 65 51 48 54 55 56 58 60 62 61
197 214 210 200 182 215 201 238 252 252 288 277 295 312 304 270 241 219 234 213 6 11 336 338 342 339 342 86 97 209 193 180 185 174 166 164 159 157 151 157 150 142 110 93 86 76 57 53 55 57 62 65 65 65
122 119 131 154 143 195 243 229 248 289 271 274 298 261 276 258 231 203 138 73 60 354 344 347 348 359 26 9 354 297 196 196 195 185 173 171 171 178 174 158 158 156 132 97 86 86 79 65 57 64 67 71 71 71
99 148 124 153 158 198 270 220 243 230 248 265 302 299 263 262 152 149 84 83 84 12 7 358 337 322 327 357 341 222 197 187 186 180 176 180 192 200 191 172 172 165 154 128 103 88 85 77 66 68 73 75 74 73
89 118 196 210 202 214 223 225 229 250 247 244 221 265 155 55 147 54 80 81 32 357 8 6 2 352 333 322 34 87 175 170 179 174 182 197 198 194 195 181 164 154 137 130 117 101 89 88 79 76 79 78 76 73
294 212 219 247 208 234 229 219 230 232 247 248 283 341 352 100 141 33 70 34 10 359 3 2 356 8 21 53 351 32 179 184 197 201 195 200 208 195 180 179 177 168 160 153 138 121 110 101 94 86 81 77 77 76
268 220 202 267 183 198 300 300 348 331 327 300 20 351 19 87 95 62 46 349 346 347 348 348 348 334 272 13 13 130 172 199 223 221 220 223 219 186 179 184 187 186 178 173 142 136 130 125 115 103 92 83 75 70
282 278 240 237 269 247 294 284 263 272 345 9 5 7 318 194 103 56 341 324 334 334 334 329 317 322 257 298 104 335 181 184 194 196 167 159 180 195 196 198 197 189 181 182 187 172 127 138 145 130 111 98 83 70
269 282 273 303 349 7 330 281 53 29 21 341 357 36 50 20 11 334 324 328 330 330 329 323 306 304 225 220 186 218 168 186 186 150 170 187 194 201 201 197 194 193 191 188 198 201 196 164 149 158 155 123 100 78
250 254 246 320 200 100 64 16 107 103 350 339 56 94 113 106 27 353 341 341 342 341 332 328 313 276 233 241 200 211 206 174 168 162 215 216 216 216 214 210 206 205 196 192 195 203 203 187 165 155 161 194 216 225
249 205 164 145 86 206 277 155 155 131 71 95 109 121 133 143 53 21 3 358 5 7 358 347 345 340 231 211 194 187 192 185 198 219 258 246 234 222 213 204 203 199 195 195 195 195 199 208 194 182 194 252 244 227
200 197 127 130 162 185 161 137 130 130 102 92 96 123 145 172 279 4 8 1 5 3 4 9 359 344 323 170 170 190 199 199 163 166 143 191 220 201 193 188 191 198 196 197 204 205 203 196 201 226 272 285 217 210
190 182 164 148 159 168 165 166 164 151 133 109 120 124 143 187 240 342 4 8 1 10 21 21 19 11 2 266 200 201 203 206 193 186 147 208 202 195 198 196 194 192 191 189 183 181 185 201 215 250 254 237 231 236
155 153 148 136 144 172 196 204 171 129 128 125 144 154 180 234 238 5 354 350 358 6 9 12 8 6 1 348 299 213 199 202 216 191 190 212 183 161 176 176 174 176 179 183 186 186 191 213 240 228 214 215 224 235